COSMOS 1275 DEB, 12962

Orbit data source: Space-Track

COSMOS 1275 DEB, 12962 is space debris in LEO originally from a launch on Thu, 04 Jun 1981 UTC launched from the Plesetsk Missile And Space Complex (PKMTR). Debris objects in space refer to the collection of defunct objects orbiting the Earth. Examples of debris include non-operational satellites, rocket bodies, and fragments generated from explosions, collisions, or faulty payload assembly.

Loading next visibility...
Identifier
12962, 1981-053EH
Orbit
LEO
Country
Flag of CISCIS
Related business
Manufacturer
Unknown
Mission
Spacecraft
Bus & Motor
Unknown
Mass
Unknown
Launch date (UTC)
1981-06-04 (45 years ago)
Launch vehicle
Unknown
Launch site
Plesetsk Missile And Space Complex (PKMTR)
Object type
Payload
Rocket body
Debris
Shape & HBR
Unknown shape, 0.1 m
Radar Cross Section
Small (<0.1 m²)

Expand to show TLE details & history
Last TLE update: 18 hours ago

TLE from 18 hours ago
0 COSMOS 1275 DEB
1 12962U 81053EH  25346.91695925  .00002480  00000-0  15944-2 0  9992
2 12962  82.9622 156.0080 0027439 300.4595  59.3867 14.02609348234398
Epoch: 2025-12-12T22:00Z
TLE epoch observation values (Epoch: 2025-12-12T22:00:25.279Z)
Latitude
0.00004°
Longitude
104.05097°
Altitude
877.602 km
Speed
7.419 km/s
True Right ascension
10h 24m 01s
True Declination
0° 00' 00"
Sunlit
Object was in daylight at epoch
Visualization orbit readout
Latitude
Unknown
Longitude
Unknown
Altitude
Unknown
Speed
Unknown
Apparent Right ascension
Unknown
Apparent Declination
Unknown
Sunlit
N/A
Visualization observer readout
Local Sidereal Time
14:28:50
Azimuth
Unknown
Elevation
Unknown
Doppler factor
Unknown
Orbital elements
Apogee altitude
901.804 km
Perigee altitude
861.963 km
Semi-major axis
7,260.02 km
Eccentricity
0.00274
Inclination
82.9622°
RAAN
156.008°
Arg. of periapsis
300.4595°
True anomaly
59.65778°
Mean anomaly
59.3867°
Eccentric anomaly
59.52219°
Mean motion
3.50862 °/min
Orbital period
102.6 mins
BSTAR
0.0015944
Loading maneuver chart data...
Computing Atmospheric mass density...
Loading historical data...
Loading historical data...
Loading historical data...
Loading historical data...
Loading historical data...
Loading historical data...
Loading historical data...

Documentation

Showing up to 5 results
|